{"data":{"norad_id":61016,"intl_designator":"2024-159F","name":"GEESAT-3 06","alt_names":[],"object_type":"PAYLOAD","status":"ACTIVE","operator":null,"country":"PRC","launch_date":"2024-09-05","launch_site_code":"TAISC","launch_vehicle":null,"mission":null,"orbit_class":"UNKNOWN","rcs_meters":null,"size_class":null,"mass_kg":null,"dimensions":null,"purposes":[],"wikipedia_slug":null,"has_3d_model":false,"image_url":null,"decayed_at":null,"tle_current":{"epoch":"2026-09-22T20:36:36.571968Z","epoch_age_seconds":87940,"freshness":"FRESH","line1":"1 61016U 24159F   26265.85875662  .00001038  00000+0  14875-3 0  9992","line2":"2 61016  49.9998 350.1975 0015999  94.3727 265.9040 14.84518694111277","mean_motion":14.84518694,"eccentricity":0.0015999,"inclination_deg":49.9998,"raan_deg":350.1975,"arg_perigee_deg":94.3727,"mean_anomaly_deg":265.904,"bstar":0.00014875,"rev_number":11127,"period_min":97.001136181044,"perigee_km":603.90853077771,"apogee_km":626.28548094967,"semimajor_km":6993.2340058637,"source":"CELESTRAK","updated_at":"2026-09-23T09:00:20.800159Z"}}}